This demonstration page uses our WeatherBlox Daily Observations layout. Learn more.

Left ArrowRight Arrow

39.01783, -85.05884

Hourly Observations for October 20, 2015

Temp ( °F °C ) Dew Point ( °F °C ) Humidity (%) Winds ( mph kmh ) Pressure ( in mb ) Visibility ( mi km ) Precip ( " mm )
12:52 am 00:52 Clear 51 10.6 35 1.7 54 54 SSW 7 11 30.25 1024 10 16 N/A
1:52 am 01:52 Mostly Clear 51 10.6 35 1.7 54 54 SSW 6 9 30.25 1024 10 16 N/A
2:52 am 02:52 Partly Cloudy 50 10 36 2.2 59 59 S 6 9 30.26 1025 10 16 N/A
3:52 am 03:52 Mostly Clear 46 7.8 36 2.2 68 68 S 7 11 30.26 1025 10 16 N/A
4:52 am 04:52 Mostly Clear 49 9.4 37 2.8 64 64 SSW 10 17 30.26 1025 10 16 N/A
5:52 am 05:52 Mostly Clear 50 10 37 2.8 61 61 SSW 10 17 30.27 1025 10 16 N/A
6:52 am 06:52 Mostly Clear 49 9.4 38 3.3 66 66 SSW 10 17 30.29 1026 10 16 N/A
7:52 am 07:52 Mostly Clear 48 8.9 38 3.3 68 68 SSW 9 15 30.30 1026 10 16 N/A
8:52 am 08:52 Mostly Sunny 50 10 39 3.9 66 66 SSW 10 17 30.32 1027 10 16 N/A
9:52 am 09:52 Mostly Sunny 54 12.2 40 4.4 59 59 SW 7 11 30.33 1027 10 16 N/A
10:52 am 10:52 Sunny 58 14.4 40 4.4 51 51 SW 10 17 30.33 1027 10 16 N/A
11:52 am 11:52 Mostly Sunny 63 17.2 40 4.4 43 43 SW 8 13 30.31 1027 10 16 N/A
12:52 pm 12:52 Sunny 66 18.9 39 3.9 37 37 SSW 14 22 30.30 1026 10 16 N/A
1:52 pm 13:52 Sunny 68 20 39 3.9 35 35 VRB 7 11 30.28 1025 10 16 N/A
2:52 pm 14:52 Sunny 70 21.1 37 2.8 30 30 SW 15 24 30.24 1024 10 16 N/A
3:52 pm 15:52 Sunny 70 21.1 39 3.9 32 32 SSW 13 20 30.23 1024 10 16 N/A
4:52 pm 16:52 Mostly Sunny 69 20.6 37 2.8 31 31 SSW 10 17 30.22 1023 10 16 N/A
5:52 pm 17:52 Mostly Sunny 68 20 39 3.9 35 35 S 8 13 30.22 1023 10 16 N/A
6:52 pm 18:52 Mostly Sunny 63 17.2 38 3.3 40 40 S 7 11 30.22 1023 10 16 N/A
7:52 pm 19:52 Mostly Clear 59 15 38 3.3 46 46 S 5 7 30.22 1023 10 16 N/A
8:52 pm 20:52 Mostly Clear 57 13.9 39 3.9 51 51 S 5 7 30.22 1024 10 16 N/A
9:52 pm 21:52 Partly Cloudy 54 12.2 39 3.9 57 57 S 6 9 30.23 1024 10 16 N/A
10:52 pm 22:52 Partly Cloudy 52 11.1 40 4.4 64 64 S 6 9 30.23 1024 10 16 N/A
11:52 pm 23:52 Partly Cloudy 50 10 40 4.4 68 68 SSW 3 6 30.24 1024 10 16 N/A

Powered by AerisWeather